TimeEST,TemperatureF,Dew PointF,Humidity,Sea Level PressureIn,VisibilityMPH,Wind Direction,Wind SpeedMPH,Gust SpeedMPH,PrecipitationIn,Events,Conditions,WindDirDegrees,DateUTC
12:56 AM,62.1,54.0,75,29.90,10.0,South,11.5,-,N/A,,Clear,180,2014-02-21 05:56:00
1:56 AM,60.1,54.0,80,29.90,10.0,South,5.8,-,N/A,,Clear,190,2014-02-21 06:56:00
2:56 AM,59.0,54.0,83,29.87,10.0,South,3.5,-,N/A,,Clear,170,2014-02-21 07:56:00
3:56 AM,59.0,55.0,87,29.84,10.0,South,5.8,-,N/A,,Overcast,180,2014-02-21 08:56:00
4:56 AM,59.0,57.9,96,29.82,9.0,SSW,8.1,-,0.03,Rain-Thunderstorm,Light Rain,200,2014-02-21 09:56:00
5:01 AM,59.0,57.2,94,29.84,9.0,SSW,8.1,-,0.01,Rain-Thunderstorm,Light Thunderstorms and Rain,200,2014-02-21 10:01:00
5:10 AM,59.0,59.0,100,29.83,7.0,SSW,8.1,-,0.02,Rain-Thunderstorm,Light Thunderstorms and Rain,200,2014-02-21 10:10:00
5:23 AM,60.8,59.0,94,29.83,10.0,South,10.4,-,0.02,Rain,Light Rain,180,2014-02-21 10:23:00
5:56 AM,61.0,60.1,97,29.82,8.0,South,9.2,-,0.04,Rain-Thunderstorm,Rain,190,2014-02-21 10:56:00
6:14 AM,60.8,59.0,94,29.89,1.8,West,15.0,29.9,0.24,Rain-Thunderstorm,Heavy Thunderstorms and Rain,260,2014-02-21 11:14:00
6:24 AM,60.8,59.0,94,29.86,1.0,SW,25.3,38.0,0.55,Rain-Thunderstorm,Heavy Thunderstorms and Rain,230,2014-02-21 11:24:00
6:31 AM,60.8,59.0,94,29.86,3.0,SW,24.2,36.8,0.57,Rain-Thunderstorm,Thunderstorms and Rain,220,2014-02-21 11:31:00
6:41 AM,60.8,59.0,94,29.86,7.0,SW,17.3,31.1,0.60,Rain-Thunderstorm,Thunderstorms and Rain,230,2014-02-21 11:41:00
6:56 AM,61.0,59.0,93,29.86,5.0,SW,17.3,25.3,0.66,Rain-Thunderstorm,Heavy Rain,220,2014-02-21 11:56:00
7:13 AM,60.8,60.8,100,29.88,7.0,SW,16.1,24.2,0.05,Rain,Rain,220,2014-02-21 12:13:00
7:56 AM,61.0,60.1,97,29.85,7.0,SSW,11.5,-,0.16,Rain,Rain,200,2014-02-21 12:56:00
8:20 AM,60.8,60.8,100,29.86,10.0,South,11.5,-,0.02,,Overcast,190,2014-02-21 13:20:00
8:32 AM,60.8,60.8,100,29.87,10.0,SSW,12.7,-,0.02,,Overcast,200,2014-02-21 13:32:00
8:39 AM,60.8,60.8,100,29.88,10.0,SSW,11.5,-,0.02,Rain,Light Rain,210,2014-02-21 13:39:00
8:46 AM,60.8,60.8,100,29.88,5.0,SW,17.3,20.7,0.03,Rain,Light Rain,220,2014-02-21 13:46:00
8:56 AM,60.1,57.0,90,29.88,10.0,WSW,11.5,-,0.03,,Overcast,250,2014-02-21 13:56:00
9:05 AM,60.8,57.2,88,29.89,10.0,WSW,10.4,-,N/A,,Overcast,250,2014-02-21 14:05:00
9:56 AM,55.0,48.9,80,29.92,10.0,West,9.2,-,N/A,,Overcast,280,2014-02-21 14:56:00
10:56 AM,55.0,42.1,62,29.91,10.0,West,12.7,-,N/A,,Overcast,260,2014-02-21 15:56:00
11:56 AM,57.0,36.0,45,29.91,10.0,West,15.0,19.6,N/A,,Clear,260,2014-02-21 16:56:00
12:56 PM,60.1,37.9,44,29.91,10.0,West,13.8,21.9,N/A,,Clear,260,2014-02-21 17:56:00
1:56 PM,61.0,28.9,30,29.91,10.0,West,15.0,23.0,N/A,,Clear,260,2014-02-21 18:56:00
2:56 PM,63.0,27.0,26,29.91,10.0,WSW,15.0,-,N/A,,Clear,240,2014-02-21 19:56:00
3:56 PM,64.0,26.1,24,29.92,10.0,West,8.1,-,N/A,,Clear,260,2014-02-21 20:56:00
4:56 PM,63.0,15.1,16,29.94,10.0,West,18.4,24.2,N/A,,Clear,280,2014-02-21 21:56:00
5:56 PM,60.1,17.1,19,29.97,10.0,WNW,13.8,19.6,N/A,,Clear,290,2014-02-21 22:56:00
6:56 PM,55.9,19.9,25,29.99,10.0,WNW,16.1,-,N/A,,Clear,290,2014-02-21 23:56:00
7:56 PM,54.0,19.9,26,30.00,10.0,WNW,8.1,-,N/A,,Clear,290,2014-02-22 00:56:00
8:56 PM,53.1,19.9,27,30.00,10.0,NW,16.1,-,N/A,,Clear,310,2014-02-22 01:56:00
9:56 PM,50.0,21.9,33,30.03,10.0,West,6.9,-,N/A,,Clear,270,2014-02-22 02:56:00
10:56 PM,46.9,23.0,39,30.03,10.0,West,4.6,-,N/A,,Clear,280,2014-02-22 03:56:00
11:56 PM,44.1,23.0,43,30.05,10.0,Calm,Calm,-,N/A,,Clear,0,2014-02-22 04:56:00